Location: Unspecified
(48.8656°N, 0.0000°E)
Time: 22:26:06
(UTC+00:00)

Transit 2A Rocket - Pass Details

Date: 26 June 2019
Orbit: 594 x 909 km, 66.7° (Epoch: 21 October)

Event Time Altitude Azimuth Distance (km) Brightness Sun altitude
Rises 09:20:36 0° 209° (SSW) 3,527 8.4 49.2°
Reaches altitude 10° 09:23:08 10° 208° (SSW) 2,586 7.8 49.6°
Maximum altitude 09:29:12 80° 123° (ESE) 910 6.7 50.5°
Drops below altitude 10° 09:35:02 10° 38° (NE) 2,493 7.9 51.4°
Sets 09:37:26 0° 37° (NE) 3,392 8.4 51.7°
